Regional Weather Roundup
Issued by NWS

Home | Current Version | Previous Version | Text Only | Print | Product List | Glossary Off
Versions: 1 2 3 4 5 6 7 8 9 10 11 12 13 14 15 16 17 18 19 20 21 22 23 24 25 26 27 28 29 30 31 32 33 34 35 36 37 38 39 40 41 42 43 44 45 46 47 48 49 50

000
ASUS43 KOAX 300402
RWRNE

WEATHER ROUNDUP FOR NEBRASKA
NATIONAL WEATHER SERVICE OMAHA NE
1100 PM CDT FRI APR 29 2016

NOTES: SATELLITE DATA IS BEING USED TO AUGMENT CLOUD COVER ABOVE
       12000 FEET.
       "FAIR" INDICATES FEW OR NO CLOUDS BELOW 12,000 FEET WITH NO
       SIGNIFICANT WEATHER AND/OR OBSTRUCTIONS TO VISIBILITY.

  * THESE STATIONS DO NOT REPORT WEATHER SUCH AS RAIN...SNOW OR FOG.

NEZ001>004-019>022-054>056-300500-
NEBRASKA PANHANDLE

CITY           SKY/WX    TMP DP  RH WIND       PRES   REMARKS
SCOTTSBLUFF    LGT SNOW  33  32  96 NW5       29.95S FOG     WCI  29
ALLIANCE       LGT SNOW  32  32 100 NE8       29.94S VSB 3/4 WCI  25
CHADRON        LGT RAIN  38  36  92 NE10      30.00R FOG     WCI  31
KIMBALL        LGT SNOW  32  32 100 N8        29.92R WCI  25
SIDNEY         LGT SNOW  33  31  92 N13       29.91S FOG     WCI  24
$$

NEZ057>060-069>072-079>082-300500-
SOUTHWEST NEBRASKA

CITY           SKY/WX    TMP DP  RH WIND       PRES   REMARKS
NORTH PLATTE   HVY RAIN  38  36  92 NE13      29.91R FOG     WCI  30
IMPERIAL       LGT SNOW  33  32  96 NE14      29.88F FOG     WCI  23
LEXINGTON      RAIN      41  39  91 E6        29.90R
MCCOOK         RAIN      38  35  89 NE12      29.89S FOG     WCI  30
$$

NEZ005>010-023>029-035>040-094-300500-
NORTH CENTRAL NEBRASKA

CITY           SKY/WX    TMP DP  RH WIND       PRES   REMARKS
VALENTINE      CLOUDY    39  37  92 E15       30.00S WCI  31
AINSWORTH      CLOUDY    39  39  98 NE13G18   29.98F FOG     WCI  32
BROKEN BOW     LGT RAIN  40  38  93 NE21G29   29.89R WCI  30
ORD            LGT RAIN  41  40  96 NE14      29.92F
$$

NEZ041-046>049-061>064-073>077-083>087-300500-
SOUTH CENTRAL NEBRASKA

CITY           SKY/WX    TMP DP  RH WIND       PRES   REMARKS
GRAND ISLAND   CLOUDY    43  41  93 NE20G29   29.89F
AURORA         CLOUDY    44  43  95 NE21G30   29.88S
HASTINGS       HVY RAIN  43  41  93 NE24G33   29.83F FOG
KEARNEY *      CLOUDY    43  39  87 NE24G32   29.83F
YORK           CLOUDY    45  43  93 E18       29.88S
$$

NEZ011>018-030>034-042>045-300500-
NORTHEAST NEBRASKA

CITY           SKY/WX    TMP DP  RH WIND       PRES   REMARKS
NORFOLK        CLOUDY    43  38  82 NE17G23   29.97S
ALBION         CLOUDY    43  39  87 NE14G21   29.96S
BLAIR          LGT RAIN  46  42  88 NE18      29.93S
COLUMBUS *     CLOUDY    45  36  70 NE17G24   29.94S
FREMONT        LGT RAIN  45  42  89 NE15      29.94F
TEKAMAH        CLOUDY    47  41  80 NE16      29.97F
$$

NEZ050>053-065>068-078-088>093-300500-
SOUTHEAST NEBRASKA

CITY           SKY/WX    TMP DP  RH WIND       PRES   REMARKS
LINCOLN        CLOUDY    48  42  80 NE22      29.90S
OMAHA EPPLEY   LGT RAIN  47  42  83 NE15G21   29.94F
FALLS CITY     CLOUDY    50  46  86 E18G26    29.84F
$$

NEZ044-045-051>053-067-300500-
OMAHA AREA

CITY           SKY/WX    TMP DP  RH WIND       PRES   REMARKS
OMAHA EPPLEY   LGT RAIN  47  42  83 NE15G21   29.94F
BLAIR          LGT RAIN  46  42  88 NE18      29.93S
FREMONT        LGT RAIN  45  42  89 NE15      29.94F
OFFUTT AFB     CLOUDY    48  43  84 NE15G25   29.90F
WAHOO          CLOUDY    47  42  84 NE16      29.93S
$$



USA.gov is the U.S. government's official web portal to all federal, state and local government web resources and services.